BEIDOU-3 M19 (C41)

Last updated on Mon Oct 20 2025 00:03:25 GMT+0000 (Coordinated Universal Time)

1 44864U 19090A 25291.85960868 -.00000026 00000+0 00000+0 0 9991 2 44864 56.3467 70.7804 0015929 285.3424 90.8161 1.86231544 39741
UTC large
Height (km)
Speed (km/s)
/
Latitude / Longitude
Inclination (degrees)
Orbital Period (minutes)
Azimuth
Elevation
Range (km)
Doppler Factor

Next 0 passes for location: London (51.5072 / 0.1276)

Sorry there are no passes over London.